Regional Weather Roundup
Issued by NWS Jackson, KY

Home | Current Version | Previous Version | Text Only | Print | Product List | Glossary Off
Versions: 1 2 3 4 5 6 7 8 9 10 11 12 13 14 15 16 17 18 19 20 21 22 23 24 25 26 27 28 29 30 31 32 33 34 35 36 37 38 39 40 41 42 43 44 45 46 47 48 49 50

000
ASUS43 KJKL 210710
RWRJKL

EAST KENTUCKY HOURLY WEATHER ROUNDUP
NATIONAL WEATHER SERVICE JACKSON KY
300 AM EDT TUE APR 21 2015

NOTE: "FAIR" INDICATES FEW OR NO CLOUDS BELOW 12,000 FEET WITH
NO SIGNIFICANT WEATHER AND/OR OBSTRUCTIONS TO VISIBILITY.

* THESE REPORTS ARE NOT UNDER NWS QUALITY CONTROL AND MAY NOT
  REPORT WEATHER SUCH AS PRECIPITATION AND FOG.

KYZ079-080-083-085-087-088-110-112-115-119-120-210800
...EASTERN KENTUCKY...

CITY           SKY/WX    TMP DP  RH WIND       PRES   REMARKS
JACKSON        CLOUDY    49  39  68 VRB7      29.87R
LONDON         CLOUDY    51  38  60 W6        29.89R
SOMERSET*      CLOUDY    50  39  66 CALM      29.91S
MONTICELLO*    CLOUDY    51  45  80 CALM      29.93S
MIDDLESBORO*   CLOUDY    49  48  93 CALM      29.89S
HARLAN APT*    CLOUDY    50  46  87 W7        29.87S
HAZARD APT*    CLOUDY    52  39  62 W8        29.87S
BLACK MTN*       N/A     39  39 100 NW1         N/A
PIKEVILLE APT* CLOUDY    50  41  71 W7        29.85S
BIG SANDY*     CLOUDY    51  42  72 W3        29.85S
$$

KYZ035-036-041-042-044-050-067-078-099-210800
...CENTRAL KENTUCKY...

CITY           SKY/WX    TMP DP  RH WIND       PRES   REMARKS
MT STERLING*   CLOUDY    45  37  76 W6        29.87S
FLEMING/MASON* MOCLDY    45  37  76 SW10G17   29.85R
DANVILLE*      MOCLDY    46  37  71 W5        29.89S
RICHMOND*      CLOUDY    48  39  71 SW5       29.87F
LEXINGTON      PTCLDY    45  35  68 SW7       29.86S
FRANKFORT      PTCLDY    43  34  70 SW5       29.84F
$$

KYZ091>093-OHZ055-061-077-WVZ005-015-034-035-042-210800
...SOUTHERN OHIO/WEST VIRGINIA...

CITY           SKY/WX    TMP DP  RH WIND       PRES   REMARKS
COVINGTON      MOCLDY    46  35  65 SW8       29.80F
COLUMBUS       MOCLDY    46  37  71 SW10      29.75S
DAYTON         PTCLDY    45  36  70 SW13      29.76S
WILMINGTON     MOCLDY    44  35  70 SW9       29.78S
HUNTINGTON     MOCLDY    49  34  56 W7        29.82S
CHARLESTON     CLOUDY    53  35  50 W8G17     29.80S
PINEVILLE*     MOCLDY    49  44  83 MISG      29.87S
BECKLEY        MOCLDY    46  41  82 W8        29.80F
BLUEFIELD      CLOUDY    47  40  76 W12G21    29.82S
$$

VAZ002-007-008-TNZ017-027-036-066-071-210800
...SOUTHWEST VIRGINIA/EAST TENNESSEE...

CITY           SKY/WX    TMP DP  RH WIND       PRES   REMARKS
WISE*          CLOUDY    46  37  71 W5        29.87S
JONESVILLE*    CLOUDY    46  46 100 SW3       29.90S
ABINGDON*      PTCLDY    49  44  82 W3        29.86S
BRISTOL        PTCLDY    50  44  80 W6        29.87S
KNOXVILLE      CLEAR     49  43  80 SW7       29.89F
OAK RIDGE      PTCLDY    50  45  83 CALM      29.91S
CROSSVILLE     PTCLDY    45  41  86 VRB3      29.91S
NASHVILLE      CLEAR     49  42  77 CALM      29.92S
$$

...KEY TO REMARKS...
VSB - VISIBILITY IN MILES
WCI - WIND CHILL INDEX
HX  - HEAT INDEX

$$



USA.gov is the U.S. government's official web portal to all federal, state and local government web resources and services.